CW4778 Auckland NZ current weather conditions

sailwx.info

Wind from 229 at 2 knots gusting 6

Air temperature 11.1° C
Dewpoint 10.8° C

Last reported at 2017-Jul-22 08:08 UTC.
Time now 2017-Jul-22 08:32 UTC

Location: S 36°52' E 174°44'.
View on Google Maps.

See reports from other nearby stations

  
Tides and Currents Weather Stations Pressure Air Temp Water Temp Dewpoint Dewpoint Depression Visibility Wind Speed Wind Dir Waves Ship Positions
date/time (UTC)wind fromknots sea level pressurealtimeterstation pressurevisibilityair tempwater tempwave heightnotes
2017-Jul-22 08:08 229 2 gusting 6 11.1
2017-Jul-22 07:58 252 2 gusting 6 11.1
2017-Jul-22 07:48 306 2 gusting 11 11.1
2017-Jul-22 07:28 239 3 gusting 8 11.1
2017-Jul-22 07:18 282 2 gusting 6 11.7
2017-Jul-22 07:08 247 6 gusting 11 11.7
2017-Jul-22 06:38 262 1 gusting 6 11.7
2017-Jul-22 06:28 295 4 gusting 6 11.7
2017-Jul-22 06:18 291 3 gusting 6 11.7
2017-Jul-22 06:08 306 1 gusting 5 11.7
2017-Jul-22 05:58 308 1 gusting 6 11.7
2017-Jul-22 05:48 304 1 gusting 5 11.7
2017-Jul-22 05:38 272 3 gusting 6 11.7
2017-Jul-22 05:28 337 3 gusting 6 11.7
2017-Jul-22 04:58 299 2 gusting 12 11.7
2017-Jul-22 04:38 273 4 gusting 10 12.8
2017-Jul-22 04:18 245 3 gusting 12 12.8
2017-Jul-22 03:48 272 4 gusting 12 12.8
2017-Jul-22 03:28 285 6 gusting 11 12.8
2017-Jul-22 03:18 282 2 gusting 10 12.8
2017-Jul-22 03:08 293 2 gusting 8 12.8
2017-Jul-22 02:58 266 7 gusting 13 12.8
2017-Jul-22 02:48 325 5 gusting 15 12.8
2017-Jul-22 02:38 271 8 gusting 17 13.3
2017-Jul-22 02:18 261 8 gusting 18 14.4
2017-Jul-22 02:08 256 7 gusting 17 14.4
2017-Jul-22 01:38 336 5 gusting 11 14.4
2017-Jul-22 01:08 280 8 gusting 17 13.9
2017-Jul-22 00:58 294 11 gusting 17 13.9
2017-Jul-22 00:38 305 5 gusting 15 13.9
2017-Jul-22 00:18 296 9 gusting 14 13.9
2017-Jul-22 00:08 289 7 gusting 12 13.3
2017-Jul-21 23:18 276 4 gusting 7 12.2
2017-Jul-21 23:08 285 4 gusting 7 12.2
2017-Jul-21 22:58 352 1 gusting 5 11.7
2017-Jul-21 22:28 313 3 gusting 6 11.7
2017-Jul-21 22:18 326 2 gusting 6 11.7
2017-Jul-21 22:08 005 2 gusting 6 12.2
2017-Jul-21 21:58 338 4 gusting 6 12.2
2017-Jul-21 21:48 288 1 gusting 6 11.7
2017-Jul-21 21:38 312 4 gusting 6 11.7
2017-Jul-21 21:28 339 2 gusting 6 11.7
2017-Jul-21 21:08 309 1 gusting 6 11.7
2017-Jul-21 20:48 273 3 gusting 6 11.7
2017-Jul-21 20:38 279 1 gusting 7 11.1
2017-Jul-21 20:28 282 3 gusting 6 11.1
2017-Jul-21 20:18 293 5 gusting 11 11.7
2017-Jul-21 19:48 020 2 gusting 6 11.1
2017-Jul-21 19:38 018 3 gusting 6 11.1
2017-Jul-21 18:58 028 8 gusting 10 11.1
2017-Jul-21 18:48 025 7 gusting 13 11.1
2017-Jul-21 18:18 354 13 gusting 14 11.1
2017-Jul-21 18:08 007 12 gusting 15 11.1
2017-Jul-21 17:58 002 10 gusting 20 11.1
2017-Jul-21 17:48 009 11 gusting 19 11.1
2017-Jul-21 17:28 347 13 gusting 18 11.7
2017-Jul-21 17:18 002 11 gusting 14 11.7
2017-Jul-21 17:08 006 12 gusting 17 11.7
2017-Jul-21 16:58 351 11 gusting 20 11.7
2017-Jul-21 16:38 345 11 gusting 18 11.7
2017-Jul-21 16:28 358 6 gusting 14 11.7
2017-Jul-21 16:18 006 8 gusting 13 12.2
2017-Jul-21 15:58 013 10 gusting 13 12.2
2017-Jul-21 15:48 006 7 gusting 13 12.2
2017-Jul-21 15:38 343 8 gusting 17 12.2
2017-Jul-21 15:28 323 10 gusting 18 12.2
2017-Jul-21 15:08 007 8 gusting 17 12.2
2017-Jul-21 14:38 021 9 gusting 17 12.2
2017-Jul-21 14:18 321 6 gusting 18 11.7
2017-Jul-21 14:08 314 11 gusting 17 11.7
2017-Jul-21 13:58 336 10 gusting 13 11.7
2017-Jul-21 13:38 341 7 gusting 13 11.7
2017-Jul-21 13:28 321 5 gusting 8 11.7
2017-Jul-21 13:18 308 6 gusting 13 11.7
2017-Jul-21 13:08 349 11 gusting 20 11.7
2017-Jul-21 12:48 356 7 gusting 13 11.7
2017-Jul-21 12:38 324 7 gusting 13 11.7
2017-Jul-21 12:18 340 10 gusting 13 11.7
2017-Jul-21 12:08 357 6 gusting 13 11.7
2017-Jul-21 11:48 001 8 gusting 13 11.7
2017-Jul-21 11:38 012 6 gusting 11 11.7
2017-Jul-21 11:28 343 8 gusting 13 11.7
2017-Jul-21 10:48 001 8 gusting 20 11.7
2017-Jul-21 10:38 339 8 gusting 15 11.7
2017-Jul-21 10:28 335 10 gusting 14 11.7
2017-Jul-21 10:18 345 9 gusting 13 11.7
2017-Jul-21 10:08 325 6 gusting 13 11.1
2017-Jul-21 09:58 319 5 gusting 11 11.1
2017-Jul-21 09:38 329 8 gusting 13 11.7
2017-Jul-21 09:28 339 11 gusting 14 11.7
2017-Jul-21 09:08 334 9 gusting 13 11.1
2017-Jul-21 08:58 338 7 gusting 11 11.1
2017-Jul-21 08:48 315 7 gusting 13 11.1
2017-Jul-21 08:28 322 4 gusting 7 10.0
2017-Jul-21 08:08 040 1 gusting 6 10.0
2017-Jul-21 07:58 045 2 gusting 7 9.4
2017-Jul-21 07:48 042 3 gusting 6 9.4
2017-Jul-21 07:38 037 5 gusting 6 9.4
2017-Jul-21 07:28 029 9.4
2017-Jul-21 07:08 332 5 gusting 10 9.4
2017-Jul-21 06:38 332 0 gusting 6 9.4
2017-Jul-21 06:18 326 2 gusting 11 10.0
2017-Jul-21 05:58 350 8 gusting 13 10.0
2017-Jul-21 05:38 350 2 gusting 10 10.0
2017-Jul-21 05:18 320 6 gusting 7 10.0
2017-Jul-21 05:08 313 4 gusting 11 10.0
2017-Jul-21 04:48 277 6 gusting 15 10.0
2017-Jul-21 04:38 333 7 gusting 13 10.6
2017-Jul-21 04:18 003 6 gusting 10 10.6
2017-Jul-21 04:09 353 7 gusting 13 10.6
2017-Jul-21 03:58 002 6 gusting 13 10.6
2017-Jul-21 03:48 343 8 gusting 14 10.0
2017-Jul-21 03:38 309 7 gusting 17 10.6
2017-Jul-21 03:18 304 10 gusting 33 11.7
2017-Jul-21 03:08 345 11 gusting 21 12.2
2017-Jul-21 02:58 352 11 gusting 19 12.2
2017-Jul-21 02:28 330 7 gusting 19 12.8
2017-Jul-21 02:18 355 12 gusting 22 12.8
2017-Jul-21 02:08 012 11 gusting 15 13.3
2017-Jul-21 01:58 353 10 gusting 18 13.3
2017-Jul-21 01:48 355 8 gusting 14 12.8
2017-Jul-21 01:38 333 9 gusting 19 12.8
2017-Jul-21 01:28 337 12 gusting 22 12.8
2017-Jul-21 01:18 358 11 gusting 15 12.8
2017-Jul-21 01:08 355 10 gusting 15 12.2
2017-Jul-21 00:58 007 10 gusting 20 11.7
2017-Jul-21 00:48 323 13 gusting 28 11.1
2017-Jul-21 00:38 335 15 gusting 27 10.6
2017-Jul-21 00:08 324 12 gusting 19 12.2
2017-Jul-20 23:58 332 11 gusting 18 12.8
2017-Jul-20 23:28 335 8 gusting 14 10.6
2017-Jul-20 23:18 301 4 gusting 10 10.6
2017-Jul-20 23:08 303 2 gusting 15 11.1
2017-Jul-20 22:58 276 7 gusting 14 13.3
2017-Jul-20 22:18 327 5 gusting 13 12.8
2017-Jul-20 21:58 296 8 gusting 15 13.3
2017-Jul-20 21:48 324 9 gusting 14 14.4
2017-Jul-20 21:28 346 3 gusting 6 13.9
2017-Jul-20 21:18 026 6 gusting 8 12.8
2017-Jul-20 21:08 352 4 gusting 7 11.7
2017-Jul-20 20:58 355 4 gusting 12 11.7
2017-Jul-20 20:48 327 4 gusting 11 10.6
2017-Jul-20 20:38 323 5 gusting 10 10.6
2017-Jul-20 20:18 309 11 gusting 19 10.6
2017-Jul-20 20:08 327 8 gusting 18 10.6
2017-Jul-20 19:58 281 6 gusting 17 11.1
2017-Jul-20 19:48 324 5 gusting 10 11.1
2017-Jul-20 19:38 306 4 gusting 8 11.1
2017-Jul-20 19:08 345 7 gusting 11 11.7
2017-Jul-20 18:58 342 6 gusting 12 11.7
2017-Jul-20 18:48 323 8 gusting 12 12.2
2017-Jul-20 18:28 323 7 gusting 11 11.7
2017-Jul-20 18:18 310 7 gusting 14 11.7
2017-Jul-20 17:48 302 7 gusting 11 11.7
2017-Jul-20 17:28 293 6 gusting 14 12.2
2017-Jul-20 17:18 292 7 gusting 19 12.2
2017-Jul-20 17:08 290 9 gusting 17 12.2
2017-Jul-20 16:58 293 8 gusting 14 12.2
2017-Jul-20 16:28 270 8 gusting 22 12.2
2017-Jul-20 16:18 295 6 gusting 14 11.7
2017-Jul-20 16:08 273 6 gusting 19 11.7
2017-Jul-20 15:58 287 7 gusting 17 12.2
2017-Jul-20 15:48 310 7 gusting 20 12.2
2017-Jul-20 15:38 304 9 gusting 18 12.2
2017-Jul-20 15:28 274 13 gusting 21 11.7
2017-Jul-20 15:18 306 11 gusting 21 11.7
2017-Jul-20 15:08 300 9 gusting 15 12.2
2017-Jul-20 14:58 273 6 gusting 14 12.2
2017-Jul-20 14:38 327 8 gusting 15 11.7
2017-Jul-20 14:18 276 10 gusting 15 11.7
2017-Jul-20 14:08 282 10 gusting 20 11.7
2017-Jul-20 13:58 263 12 gusting 26 11.7
2017-Jul-20 13:48 286 10 gusting 15 12.2
2017-Jul-20 13:38 311 6 gusting 15 12.2
2017-Jul-20 13:18 310 10 gusting 14 12.2
2017-Jul-20 13:08 304 9 gusting 17 12.2
2017-Jul-20 12:48 328 8 gusting 13 11.7
2017-Jul-20 12:38 348 8 gusting 14 11.7
2017-Jul-20 11:38 309 9 gusting 17 11.7
2017-Jul-20 11:18 328 11 gusting 19 11.7
2017-Jul-20 11:08 335 10 gusting 19 12.2
2017-Jul-20 10:38 320 9 gusting 17 12.2
2017-Jul-20 10:28 352 7 gusting 13 12.2
2017-Jul-20 10:18 333 11 gusting 19 12.8
2017-Jul-20 09:38 344 6 gusting 13 12.8
2017-Jul-20 09:08 010 10 gusting 19 12.8
2017-Jul-20 08:58 003 11 gusting 15 12.8
2017-Jul-20 08:38 018 5 gusting 14 12.8
2017-Jul-20 08:28 014 8 gusting 13 12.8
2017-Jul-20 08:18 015 6 gusting 11 12.8
2017-Jul-20 08:08 359 3 gusting 7 12.8